User: anonymous   Login
Location: Unspecified
(0.0000°N, 0.0000°E)
Time: 18:52:05
(UTC+00:00)
Language:

COSMOS 2468 - Orbit

View from above orbital plane
View from above orbital plane
View from above satellite
View from above satellite

Ground track
Ground track

The orbit data is extracted from the following two-line orbital elements,

1 37154U 10043C   19340.75865058  .00000020  00000-0  71228-4 0  9995
2 37154  82.4584 115.0658 0014920 108.7086 251.5615 12.43653441419546
Epoch (UTC): 06 December 2019 18:12:27
Eccentricity: 0.0014920
inclination: 82.4584°
perigee height: 1479 km
apogee height: 1503 km
right ascension of ascending node: 115.0658°
argument of perigee: 108.7086°
revolutions per day: 12.43653441
mean anomaly at epoch: 251.5615°
orbit number at epoch: 41954

The dashed part of the orbit path shows where the satellite is in the earth's shadow,  

DLR